COSMOS 2520

Last updated on Mon Sep 07 2026 00:03:00 GMT+0000 (Coordinated Universal Time)

1 42907U 17046A 26249.60066170 .00000121 00000+0 00000+0 0 9991 2 42907 0.0261 111.7010 0000162 141.1393 354.0912 1.00269891 33214
UTC large
Height (km)
Speed (km/s)
/
Latitude / Longitude
Inclination (degrees)
Orbital Period (minutes)
Azimuth
Elevation
Range (km)
Doppler Factor

Next 0 passes for location: London (51.5072 / 0.1276)

No passes found over London.
COSMOS 2520